Regional Weather Roundup
Issued by NWS

Home | Current Version | Previous Version | Text Only | Print | Product List | Glossary Off
Versions: 1 2 3 4 5 6 7 8 9 10 11 12 13 14 15 16 17 18 19 20 21 22 23 24 25 26 27 28 29 30 31 32 33 34 35 36 37 38 39 40 41 42 43 44 45 46 47 48 49 50

000
ASUS43 KOAX 190410
RWRNE

WEATHER ROUNDUP FOR NEBRASKA
NATIONAL WEATHER SERVICE OMAHA NE
1100 PM CDT FRI APR 18 2014

NOTES: SATELLITE DATA IS BEING USED TO AUGMENT CLOUD COVER ABOVE
       12000 FEET.
       "FAIR" INDICATES FEW OR NO CLOUDS BELOW 12,000 FEET WITH NO
       SIGNIFICANT WEATHER AND/OR OBSTRUCTIONS TO VISIBILITY.

  * THESE STATIONS DO NOT REPORT WEATHER SUCH AS RAIN...SNOW OR FOG.

NEZ001>004-019>022-054>056-190500-
NEBRASKA PANHANDLE

CITY           SKY/WX    TMP DP  RH WIND       PRES   REMARKS
SCOTTSBLUFF    CLOUDY    67  32  27 S8        29.81S
ALLIANCE       CLOUDY    64  35  34 S14G26    29.81R
CHADRON        CLOUDY    66  37  34 SW10      29.77R
KIMBALL        CLOUDY    64  29  27 S15       29.83F
SIDNEY         CLOUDY    61  34  36 S17       29.86R
$$

NEZ057>060-069>072-079>082-190500-
SOUTHWEST NEBRASKA

CITY           SKY/WX    TMP DP  RH WIND       PRES   REMARKS
NORTH PLATTE   PTCLDY    62  42  47 S25G38    29.88F
IMPERIAL       MOCLDY    60  42  51 S20G26    29.90S
LEXINGTON      CLEAR     57  44  60 S18       29.96F
MCCOOK         PTCLDY    60  42  51 S21G28    29.94R
OGALLALA       MOCLDY    61  42  49 S18       29.86S
$$

NEZ005>010-023>029-035>040-094-190500-
NORTH CENTRAL NEBRASKA

CITY           SKY/WX    TMP DP  RH WIND       PRES   REMARKS
VALENTINE      MOCLDY    64  43  46 S25G40    29.75S
AINSWORTH      MOCLDY    64  43  46 S24G37    29.81R
BROKEN BOW     PTCLDY    58  43  57 S17G26    29.93F
O`NEILL        MOCLDY    62  39  42 S26G33    29.86F
ORD            PTCLDY    60  42  51 S18G25    29.94S
THEDFORD       MOCLDY    64  42  45 S30       29.85R
$$

NEZ041-046>049-061>064-073>077-083>087-190500-
SOUTH CENTRAL NEBRASKA

CITY           SKY/WX    TMP DP  RH WIND       PRES   REMARKS
GRAND ISLAND   CLEAR     58  42  55 S16       30.01F
AURORA         CLEAR     59  42  54 S16       30.02S
HASTINGS       CLEAR     58  41  53 S13G20    30.01F
HEBRON         CLEAR     57  41  55 S10       30.07F
HOLDREGE       CLEAR     57  42  57 S15G21    29.98F
KEARNEY *      CLEAR     57  43  58 S18       29.99F
YORK           CLEAR     55  41  58 S18       30.05S
$$

NEZ011>018-030>034-042>045-190500-
NORTHEAST NEBRASKA

CITY           SKY/WX    TMP DP  RH WIND       PRES   REMARKS
NORFOLK        MOCLDY    59  39  47 S21G30    29.98S
ALBION         MOCLDY    58  40  51 S17       29.98F
BLAIR          CLOUDY    60  39  46 S17G25    30.07F
COLUMBUS *     CLEAR     57  37  47 S17       30.04S
FREMONT        MOCLDY    59  39  47 SE18      30.06S
TEKAMAH        MOCLDY    55  38  52 SE12      30.05F
$$

NEZ050>053-065>068-078-088>093-190500-
SOUTHEAST NEBRASKA

CITY           SKY/WX    TMP DP  RH WIND       PRES   REMARKS
LINCOLN        MOCLDY    59  40  49 S17       30.08S
OMAHA EPPLEY   CLOUDY    57  40  52 S13       30.09S
BEATRICE       MOCLDY    58  39  49 SE12      30.10S
FALLS CITY     MOCLDY    55  41  59 S12       30.13S
NEBRASKA CITY  CLOUDY    58  40  51 S14       30.12S
PLATTSMOUTH    CLOUDY    59  38  45 SE10G16   30.11S
$$

NEZ044-045-051>053-067-190500-
OMAHA AREA

CITY           SKY/WX    TMP DP  RH WIND       PRES   REMARKS
OMAHA EPPLEY   CLOUDY    57  40  52 S13       30.09S
BLAIR          CLOUDY    60  39  46 S17G25    30.07F
FREMONT        MOCLDY    59  39  47 SE18      30.06S
MILLARD        CLOUDY    57  40  52 SE10      30.09S
OFFUTT AFB     CLOUDY    55  42  60 SE8       30.10S
PLATTSMOUTH    CLOUDY    59  38  45 SE10G16   30.11S
WAHOO          FAIR      57  38  50 S18       30.06F
$$



USA.gov is the U.S. government's official web portal to all federal, state and local government web resources and services.